This demonstration page uses our WeatherBlox Daily Observations layout. Learn more.

Left ArrowRight Arrow

Hourly Observations for December 30, 2018

Temp ( °F °C ) Dew Point ( °F °C ) Humidity (%) Winds ( mph kmh ) Pressure ( in mb ) Visibility ( mi km ) Precip ( " mm )
12:57 am 00:57 Clear 17 -8.3 13 -10.6 84 84 SW 15 24 30.00 1016 10 16 0.00 0.00
1:57 am 01:57 Clear 17 -8.3 13 -10.6 84 84 SSW 14 22 29.98 1015 10 16 0.00 0.00
2:57 am 02:57 Clear 17 -8.3 13 -10.6 84 84 SSW 17 28 29.96 1015 10 16 0.00 0.00
3:57 am 03:57 Clear 17 -8.3 12 -11.1 80 80 SW 13 20 29.94 1014 10 16 0.00 0.00
4:57 am 04:57 Clear 16 -8.9 12 -11.1 84 84 SSW 9 15 29.91 1013 10 16 0.00 0.00
5:57 am 05:57 Clear 17 -8.3 12 -11.1 80 80 SW 12 19 29.89 1012 10 16 0.00 0.00
6:57 am 06:57 Clear 17 -8.3 12 -11.1 80 80 SW 10 17 29.89 1012 10 16 0.00 0.00
7:57 am 07:57 Clear 18 -7.8 13 -10.6 81 81 SSW 15 24 29.87 1011 10 16 0.00 0.00
8:57 am 08:57 Sunny 21 -6.1 14 -10 74 74 SW 13 20 29.88 1012 10 16 0.00 0.00
9:57 am 09:57 Sunny 25 -3.9 16 -8.9 69 69 SW 13 20 29.85 1011 10 16 0.00 0.00
10:57 am 10:57 Sunny 30 -1.1 19 -7.2 64 64 SSW 10 17 29.82 1010 10 16 0.00 0.00
11:57 am 11:57 Sunny 33 0.6 21 -6.1 61 61 S 12 19 29.79 1009 10 16 0.00 0.00
12:57 pm 12:57 Sunny 34 1.1 21 -6.1 59 59 SSW 10 17 29.77 1008 10 16 0.00 0.00
1:57 pm 13:57 Sunny 34 1.1 21 -6.1 59 59 SW 6 9 29.73 1007 10 16 0.00 0.00
2:57 pm 14:57 Sunny 34 1.1 24 -4.4 67 67 SSW 7 11 29.71 1006 10 16 0.00 0.00
3:57 pm 15:57 Sunny 34 1.1 25 -3.9 70 70 S 9 15 29.70 1006 10 16 0.00 0.00
4:57 pm 16:57 Sunny 32 0 25 -3.9 75 75 SSW 8 13 29.72 1006 10 16 0.00 0.00
5:57 pm 17:57 Partly Cloudy 29 -1.7 24 -4.4 82 82 S 12 19 29.72 1007 10 16 0.00 0.00
6:57 pm 18:57 Clear 29 -1.7 25 -3.9 85 85 S 7 11 29.73 1007 10 16 0.00 0.00
7:57 pm 19:57 Clear 28 -2.2 23 -5 81 81 SSW 8 13 29.71 1006 10 16 0.00 0.00
8:57 pm 20:57 Clear 26 -3.3 21 -6.1 81 81 SSW 6 9 29.69 1005 10 16 0.00 0.00
9:57 pm 21:57 Clear 21 -6.1 19 -7.2 92 92 SSW 5 7 29.68 1005 10 16 0.00 0.00
10:57 pm 22:57 Clear 19 -7.2 17 -8.3 92 92 S 7 11 29.67 1005 10 16 0.00 0.00
11:57 pm 23:57 Clear 17 -8.3 15 -9.4 92 92 SSW 5 7 29.69 1005 10 16 0.00 0.00

Powered by AerisWeather